星链-3559 (STARLINK-3559 )

导读

STARLINK-3559是美国太空探索技术公司SpaceX星链星座中的一员,于2022年3月3日发射升空。星链项目旨在构建全球卫星互联网星座,为全球范围提供高速宽带互联网服务,这颗卫星入轨后承担了相应的通信组网任务,助力完善星链星座的全球覆盖能力。

基本信息
目录编号:
51860
目录名称:
STARLINK-3559
国际标识:
2022-022J
轨道中心:
EARTH
卫星名称:
星链-3559
卫星全名:
星链-3559 (STARLINK-3559 )
卫星状态:
在轨 (已飞行1654 天)
发射日期:
2022-03-03 UTC
国别 :
美国 (US)
星等 :
--
该卫星已列入 空间交会检测服务 Space Conjunction Data Service (SCDS) ,当前飞行风险评估等级: 无高风险
轨道信息
数据来源 国际轨道数据 AOE轨道数据
星历时间 2026-09-12T00:23:08+0800
15小时前
查看轨道信息
2026-09-11T00:00:00+0800
1天前
查看轨道信息
半长轴 6840.873km 6840.901km
偏心率 0.0001258 0.0001273
轨道倾角 53.161° 53.159°
近地点辐角 93.103° 82.835°
升交点赤经 244.635° 249.385°
平近点角 267.011° 61.604°
近地点 461.875km 461.893km
远地点 463.597km 463.635km
周期 93.848分钟 93.849分钟
每日圈数 15.343893 15.343796
详细信息
固有亮度:
5
最大亮度:
2.5
卫星平台:
Starlink v1.5
覆盖范围:
全球
运营商:
太空探索技术公司
运营商所在国:
美国
制造商(研发单位):
太空探索技术公司
制造商所在国:
美国
使用方式:
暂无
卫星简介
星链(Starlink)计划是由太空探索技术公司(SpaceX)提出的一个巨型低轨卫星互联网星座项目,计划在2019年至2024年间在太空搭建由约1.2万颗卫星组成的“星链”网络,其中1584颗将部署在地球上空550千米处的近地轨道,并从2020年开始工作。该卫星仍在工作。
2D轨道图
3D轨道图
轨道高度分析图
轨道倾角分析图
轨道综合分析图
查看轨道综合分析图
与全量物体交会距离演化趋势
与全量物体交会风险概率演化趋势